Overview Statistics Trail Chart Weather Telemetry Raw packets
 

This is the latest recevied weather packets stored in our database for station/object KO4LCK. If no packets are shown the sender has not sent any weather packets the latest 10 day(s).

<< 37 38 39 40 41 42 43 >>
Time Temp. Humidity Pressure Rain* Wind** Luminosity Snow
1788395030 30° C 68% 1017.4 hPa 0 mm - 0 W/m² -
1788394725 30° C 66% 1017.5 hPa 0 mm - 0 W/m² -
1788394421 30° C 66% 1017.4 hPa 0 mm - 1 W/m² -
1788394121 30.56° C 64% 1017.5 hPa 0 mm - 2 W/m² -
1788393816 30.56° C 64% 1017.3 hPa 0 mm - 4 W/m² -
1788393514 31.11° C 63% 1017.4 hPa 0 mm - 7 W/m² -
1788393209 31.11° C 63% 1017.4 hPa 0 mm - 10 W/m² -
1788392917 31.67° C 61% 1017.3 hPa 0 mm - 14 W/m² -
1788392603 32.22° C 59% 1017.4 hPa 0 mm - 17 W/m² -
1788392302 32.22° C 58% 1017.3 hPa 0 mm - 21 W/m² -
1788392002 32.78° C 57% 1017.4 hPa 0 mm - 25 W/m² -
1788391700 32.78° C 56% 1017.4 hPa 0 mm - 29 W/m² -
1788391395 33.89° C 53% 1017.5 hPa 0 mm - 32 W/m² -
1788391094 33.89° C 52% 1017.5 hPa 0 mm - 35 W/m² -
1788390789 34.44° C 47% 1017.5 hPa 0 mm - 39 W/m² -
1788390485 34.44° C 47% 1017.5 hPa 0 mm - 43 W/m² -
1788390183 34.44° C 46% 1017.5 hPa 0 mm - 47 W/m² -
1788389878 35° C 45% 1017.5 hPa 0 mm - 52 W/m² -
1788389574 35° C 45% 1017.5 hPa 0 mm - 56 W/m² -
1788389273 35.56° C 43% 1017.4 hPa 0 mm - 62 W/m² -
1788388968 36.11° C 42% 1017.5 hPa 0 mm - 62 W/m² -
1788388664 37.22° C 40% 1017.5 hPa 0 mm - 63 W/m² -
1788388363 37.22° C 43% 1017.5 hPa 0 mm - 106 W/m² -
1788388063 36.67° C 44% 1017.5 hPa 0 mm - 164 W/m² -
1788387762 36.67° C 43% 1017.5 hPa 0 mm - 182 W/m² -

* Rain latest hour (hover to see other rain measurements)
** Current wind speed in m/s (hover to see current wind gust speed)